CO3D 1

Last updated on Thu Oct 30 2025 00:02:32 GMT+0000 (Coordinated Universal Time)

1 64903U 25156E 25302.51155027 .00000034 00000+0 47017-5 0 9999 2 64903 97.4347 19.4120 0000951 219.3981 140.7185 15.20182374 14489
UTC large
Height (km)
Speed (km/s)
/
Latitude / Longitude
Inclination (degrees)
Orbital Period (minutes)
Azimuth
Elevation
Range (km)
Doppler Factor

Next 0 passes for location: London (51.5072 / 0.1276)

Sorry there are no passes over London.